Regional Weather Roundup
Issued by NWS

Home | Current Version | Previous Version | Graphics & Text | Print | Product List | Glossary On
Versions: 1 2 3 4 5 6 7 8 9 10 11 12 13 14 15 16 17 18 19 20 21 22 23 24 25 26 27 28 29 30 31 32 33 34 35 36 37 38 39 40 41 42 43 44 45 46 47 48 49 50
624
ASUS45 KTFX 021110
RWRMT
MONTANA REGIONAL WEATHER ROUNDUP
NATIONAL WEATHER SERVICE GREAT FALLS MT
500 AM MDT MON MAY 02 2016

NOTE: "FAIR" INDICATES FEW OR NO CLOUDS BELOW 12000 FEET WITH NO
SIGNIFICANT WEATHER AND/OR OBSTRUCTIONS TO VISIBILITY.

MTZ001>007-043-021200-
WEST OF THE DIVIDE

CITY           SKY/WX    TMP DP  RH WIND       PRES   REMARKS
KALISPELL      CLEAR     34  34 100 W3        30.16R
MISSOULA       CLEAR     40  34  79 CALM      30.19S
BUTTE          CLEAR     28  24  85 S3        30.23R
MULLAN PASS    CLEAR     45  29  53 SE9G17    30.20R
ANACONDA         N/A     34  27  75 S5        30.22R
DEER LODGE       N/A     34  28  80 W6        30.23S WCI  29
EUREKA           N/A     36  34  93 CALM      30.18R
HAMILTON         N/A     41  36  81 SE5       30.18S
LIBBY            N/A     36  34  93 CALM      30.18R
PLAINS           N/A     37  32  82 CALM      30.16R
$$

MTZ008-052>055-021200-
SOUTHWEST MONTANA

CITY           SKY/WX    TMP DP  RH WIND       PRES   REMARKS
BOZEMAN        CLEAR     34  27  75 CALM      30.22R
DILLON         CLEAR     31  27  85 SW10      30.21S WCI  22
ENNIS          CLEAR     28  27  93 NE6       30.27S WCI  22
TWIN BRIDGES     N/A     32  22  67 CALM      30.18R
$$

MTZ009-010-012-014-046-048-049-054-021200-
EAST SLOPES AND CENTRAL MONTANA

CITY           SKY/WX    TMP DP  RH WIND       PRES   REMARKS
CUT BANK       CLEAR     34  30  85 W7        30.17F WCI  28
GREAT FALLS    CLOUDY    36  32  85 SW10      30.18S WCI  28
HELENA         CLEAR     38  32  79 N3        30.20S
CHOTEAU          N/A     37  34  87 SW7       30.19S
CONRAD           N/A     33  33 100 E1        30.17S
$$

MTZ011-013-016-021-045-047-050-051-021200-
NORTH CENTRAL MONTANA

CITY           SKY/WX    TMP DP  RH WIND       PRES   REMARKS
HAVRE          PTCLDY    37  34  89 SW7       30.16S WCI  32
LEWISTOWN      CLOUDY    35  28  75 S6        30.19S WCI  30
N BAR RANCH      N/A     36  28  75 W8        30.21S WCI  29
CHINOOK          N/A     37  37 100 SW3       30.16S
$$

MTZ017>020-022>027-061-062-021200-
NORTHEAST MONTANA

CITY           SKY/WX    TMP DP  RH WIND       PRES   REMARKS
GLASGOW        CLEAR     45  34  65 W6        30.12S
JORDAN           N/A     36  34  92 W5        30.15S
SIDNEY         CLOUDY    54  30  40 W16       30.07F
WOLF POINT     CLEAR     43  36  76 SW7       30.11S
PLENTYWOOD       N/A     46  34  61 W12       30.06F
POPLAR           N/A     45  36  70 SW5       30.10F
SCOBEY           N/A     46  29  52 W2        30.07F
$$

MTZ028>42-056>058-021200-
SOUTHCENTRAL AND SOUTHEAST MONTANA

CITY           SKY/WX    TMP DP  RH WIND       PRES   REMARKS
BAKER          CLEAR     40  31  70 W9        30.14F
BILLINGS       CLOUDY    39  32  76 SW12      30.19S WCI  32
LIVINGSTON     CLOUDY    32  25  75 W6        30.22S WCI  26
MILES CITY     PTCLDY    42  35  76 S3        30.14F
EKALAKA          N/A     37  26  65 CALM      30.11F
FORSYTH          N/A     41  36  81 CALM      30.16F
LAUREL           N/A     34  25  70 SW2       30.16R
ROUNDUP          N/A     36  29  76 S8        30.08S WCI  30
$$

REGIONAL REPORTS...DAKOTAS

CITY           SKY/WX    TMP DP  RH WIND       PRES   REMARKS
WILLISTON      CLOUDY    51  35  54 W18       30.04F
MINOT          CLOUDY    54  35  48 SW14      29.97F
DICKINSON      MOCLDY    41  32  70 W10       30.06F
BEACH            N/A     45  32  61 W12       30.14F
CROSBY           N/A     50  34  53 W16       30.02F
WATFORD CITY   CLOUDY    50  32  50 W13G20    30.05F
BISMARCK       CLOUDY    44  37  76 S8        30.05F
GRAND FORKS    MOCLDY    39  31  72 S3        30.04F
FARGO          CLOUDY    42  31  64 S3        30.06F
BUFFALO SD       N/A     40  31  70 W12       30.07F
RAPID CITY     CLEAR     37  28  70 W7        30.16F WCI  32
$$

REGIONAL REPORTS...WYOMING/IDAHO/WASHINGTON

CITY           SKY/WX    TMP DP  RH WIND       PRES   REMARKS
GILLETTE       CLEAR     36  29  75 SW8       30.18F WCI  30
SHERIDAN       CLEAR     32  27  81 CALM      30.18S
BUFFALO WY       N/A    N/A N/A N/A MISG      30.20S
CODY           CLEAR     43  27  52 SW8       30.20F
YELLOWSTONE LA   N/A     21  17  84 CALM      30.30R
IDAHO FALLS    CLEAR     33  23  66 W3        30.23R
SALMON         CLEAR     34  27  75 NW3       30.20R
BOISE          CLEAR     49  37  63 CALM      30.10R
SPOKANE        CLEAR     52  40  63 NE7       30.08R
$$

REGIONAL REPORTS...ALBERTA

CITY           SKY/WX    TMP DP  RH WIND       PRES   REMARKS
EDMONTON       PTCLDY    50  36  57 SW5       30.06S
CALGARY        PTCLDY    43  28  56 SW2       30.14S
LETHBRIDGE     CLEAR     39  34  81 SW10      30.14S
MEDICINE HAT   CLEAR     41  37  87 SW10      30.13S
$$

REGIONAL REPORTS...SASKATCHEWAN

CITY           SKY/WX    TMP DP  RH WIND       PRES   REMARKS
SWIFT CURRENT  CLEAR     45  36  70 W12       30.09R
REGINA         PTCLDY    37  32  81 N3        30.03R
SASKATOON      PTCLDY    37  34  87 S2        30.03S
$$




USA.gov is the U.S. government's official web portal to all federal, state and local government web resources and services.